Location: Pian di Sc�
(43.6333°N, 11.5500°E)
Time: 17:34:32
(UTC+00:00)

Cosmos 2219 Rocket - Pass Details

Date: 07 August 2020
Orbit: 826 x 848 km, 71.0° (Epoch: 18 September)

Event Time Altitude Azimuth Distance (km) Brightness Sun altitude
Rises 00:04:24 0° 332° (NNW) 3,414 6.0 -29.2°
Reaches altitude 10° 00:06:52 10° 330° (NNW) 2,477 5.2 -29.1°
Enters shadow 00:11:32 56° 297° (WNW) 1,005 2.5 -28.9°
